This is the latest recevied weather packets stored in our database for station/object K5NWZ. If no packets are shown the sender has not sent any weather packets the latest 1 day(s).
| Time | Temp. | Humidity | Pressure | Rain* | Wind** | Luminosity | Snow |
|---|---|---|---|---|---|---|---|
| 1778094209 | 3.33° C | 67% | 1029.7 hPa | 3.05 mm | - | 349 W/m² | - |
| 1778093906 | 3.33° C | 71% | 1029.5 hPa | 3.05 mm | - | 328 W/m² | - |
| 1778093603 | 3.33° C | 69% | 1029.7 hPa | 3.56 mm | - | 327 W/m² | - |
| 1778091481 | 3.33° C | 70% | 1029.9 hPa | 4.83 mm | - | 382 W/m² | - |
| 1778089662 | 3.89° C | 69% | 1029.8 hPa | 3.05 mm | - | 900 W/m² | - |
| 1778088147 | 3.89° C | 70% | 1029.8 hPa | 1.78 mm | - | 352 W/m² | - |
| 1778087542 | 3.33° C | 70% | 1029.9 hPa | 1.27 mm | - | 319 W/m² | - |
| 1778086028 | 2.78° C | 76% | 1029.9 hPa | 1.78 mm | - | 190 W/m² | - |
| 1778085725 | 1.67° C | 82% | 1029.7 hPa | 1.78 mm | - | 145 W/m² | - |
| 1778083904 | 1.67° C | 86% | 1029.4 hPa | 1.78 mm | - | 178 W/m² | - |
| 1778083602 | 1.11° C | 89% | 1029.5 hPa | 1.27 mm | - | 190 W/m² | - |
| 1778083299 | 0.56° C | 91% | 1029.7 hPa | 1.27 mm | - | 144 W/m² | - |
| 1778082694 | 0.56° C | 97% | 1029.3 hPa | 1.27 mm | - | 136 W/m² | - |
| 1778081556 | 1.11° C | 97% | 1029.3 hPa | 0 mm | - | 123 W/m² | - |
| 1778081253 | 0.56° C | 97% | 1029.1 hPa | 1.78 mm | - | 128 W/m² | - |
| 1778079739 | 0° C | 97% | 1029 hPa | 0 mm | - | 91 W/m² | - |
| 1778078830 | 0° C | 98% | 1029.1 hPa | 0 mm | - | 69 W/m² | - |
| 1778077318 | 0° C | 98% | 1028.8 hPa | 0 mm | - | 49 W/m² | - |
| 1778076411 | -0.56° C | 98% | 1028.9 hPa | 0 mm | - | 37 W/m² | - |
| 1778075501 | -0.56° C | 98% | 1028.8 hPa | 0 mm | - | 21 W/m² | - |
| 1778074591 | -0.56° C | 98% | 1028.6 hPa | 0 mm | - | 21 W/m² | - |
| 1778074288 | -0.56° C | 98% | 1028.4 hPa | 0 mm | - | 20 W/m² | - |
| 1778073682 | -0.56° C | 98% | 1028.1 hPa | 0 mm | - | 17 W/m² | - |
| 1778071866 | -0.56° C | 97% | 1028 hPa | 0 mm | - | 6 W/m² | - |
| 1778071261 | -0.56° C | 97% | 1027.6 hPa | 0 mm | - | 5 W/m² | - |
* Rain latest hour (hover to see other rain measurements)
** Current wind speed in m/s (hover to see current wind gust speed)